Regional Weather Roundup
Issued by NWS Cleveland, OH

Home | Current Version | Previous Version | Text Only | Print | Product List | Glossary On
Versions: 1 2 3 4 5 6 7 8 9 10 11 12 13 14 15 16 17 18 19 20 21 22 23 24 25 26 27 28 29 30 31 32 33 34 35 36 37 38 39 40 41 42 43 44 45 46 47 48 49 50
000
ASUS41 KCLE 312112
RWRCLE
OHIO REGIONAL WEATHER ROUNDUP
NATIONAL WEATHER SERVICE WILMINGTON, OH
500 PM EDT TUE MAY 31 2016

NOTE: "FAIR" INDICATES FEW OR NO CLOUDS BELOW 12,000 FEET WITH NO
SIGNIFICANT WEATHER AND/OR OBSTRUCTIONS TO VISIBILITY.

OHZ001>008-015>018-024>027-034-035-043-044-312200-
   NORTHWEST OHIO

CITY           SKY/WX    TMP DP  RH WIND       PRES   REMARKS
DEFIANCE       FAIR      86  49  27 NE13      30.00F
FINDLAY        FAIR      83  49  30 NE14      30.00S
TOLEDO EXPRESS FAIR      83  50  31 NE8       30.02S
TOLEDO EXEC    FAIR      82  49  31 E12       30.03F
LIMA           FAIR      87  51  28 N7G18     29.98F
$$

OHZ009>014-019>023-028>033-038-089-312200-
   NORTHEAST OHIO

CITY           SKY/WX    TMP DP  RH WIND       PRES   REMARKS
CLE-HOPKINS    PTSUNNY   79  46  31 NE17      30.05S
CLE-LAKEFRONT  FAIR      73  63  70 NE10      30.02S
CUY CO. ARPT   PTSUNNY   81  48  32 NE17      30.04S
LORAIN-ELYRIA  FAIR      81  43  26 NE14      30.03S
ASHTABULA      FAIR      77  49  37 N8        30.04S
AKRON-CANTON   PTSUNNY   83  59  44 N10       30.00S
WOOSTER        FAIR      83  57  41 N16       30.01S
MANSFIELD      FAIR      80  57  45 N13       30.02S
YOUNGSTOWN     CLOUDY    81  57  43 N15       30.02R
$$

OHZ042-051>053-060>062-070>072-077>081-312200-
  SOUTHWEST OHIO

CITY           SKY/WX    TMP DP  RH WIND       PRES   REMARKS
CINC-COVINGTON PTSUNNY   86  61  42 W7        29.96F
CINC-LUNKEN    FAIR      84  63  49 S9        29.95F
HAMILTON       FAIR      89  58  34 E6        29.96F
DAYTON         PTSUNNY   85  56  37 CALM      29.97F
WRIGHT-PAT AFB MOSUNNY   88  55  32 SE6       29.95F
DAYTON GENERAL FAIR      84  54  35 S5        29.96F
WILMINGTON     FAIR      85  56  37 VRB3      29.97F
$$

OHZ036-037-039>041-045>050-054>059-063>069-073>076-082>088-312200-
  CENTRAL AND SOUTHEAST OHIO

CITY           SKY/WX    TMP DP  RH WIND       PRES   REMARKS
COLUMBUS       CLOUDY    85  54  34 N5        29.96F
OSU AIRPORT    FAIR      85  56  37 NE9       29.96F
BOLTON FIELD   MOSUNNY  N/A N/A N/A CALM      29.98
RICKENBACK AFB FAIR      85  55  36 N3        29.95F
NEWARK         FAIR      88  54  31 N7        29.96F
MARION         FAIR      84  55  36 NE13      30.00S
LANCASTER      FAIR      85  57  38 W3        29.97F
ZANESVILLE     CLOUDY    85  60  42 E5        29.97F
NEW PHILLY     FAIR      88  51  28 N5        29.98S
$$




USA.gov is the U.S. government's official web portal to all federal, state and local government web resources and services.